Weather History for KHDE - April, 2013

Change the Weather History Date:

Thursday, April 18, 2013

  Actual Average Record
Temperature  
Mean Temperature 31 °F -  
Max Temperature 35 °F 63 °F 90 °F (1985)
Min Temperature 27 °F 37 °F 19 °F (1953)
Degree Days  
Heating Degree Days 34    
Moisture  
Dew Point 25 °F    
Average Humidity 80    
Maximum Humidity 92    
Minimum Humidity 61    
Precipitation  
Precipitation 0.03 in - - ()
Sea Level Pressure  
Sea Level Pressure 29.96 in    
Wind  
Wind Speed 22 mph (NNW)    
Max Wind Speed 29 mph    
Max Gust Speed 39 mph    
Visibility 5 miles    
Events Snow    
Averages and records for this station are not official NWS values.
T = Trace of Precipitation, MM = Missing Value Source: NWS Daily Summary

Daily Weather History Graph

Daily Weather History Graph

Search for Another Location

Airport or City:

Trip Planner

Search our weather history database for the weather conditions in past years. The results will help you decide how hot, cold, wet, or windy it might be!

Date:

Astronomy

Apr. 18, 2013 Rise Set
Actual Time 6:54 AM CDT 8:19 PM CDT
Civil Twilight 6:25 AM CDT 8:48 PM CDT
Nautical Twilight 5:51 AM CDT 9:22 PM CDT
Astronomical Twilight 5:15 AM CDT 9:59 PM CDT
Moon 1:07 PM CDT (4/18) 2:35 AM CDT (4/18)
Length of Visible Light 14h 22m
Length of Day
13h 25m
First Quarter, 52% of the Moon is Illuminated
Apr 18
First Quarter
Apr 25
Full
May 2
Last Quarter
May 9
New
May 17
First Quarter

Hourly Weather History & Observations

Time (CDT) Temp. Windchill Dew Point Humidity Pressure Visibility Wind Dir Wind Speed Gust Speed Precip Events Conditions
12:15 AM 31.5 °F 17.1 °F 27.9 °F 87% 29.90 in 5.0 mi North 28.8 mph 38.0 mph N/A Snow Light Snow
12:35 AM 31.1 °F 18.0 °F 27.5 °F 87% 29.92 in 1.2 mi North 23.0 mph 35.7 mph N/A Snow Light Snow
12:55 AM 30.2 °F 16.5 °F 28.0 °F 92% 29.93 in 1.0 mi North 24.2 mph 27.6 mph 0.01 in Snow Snow
1:15 AM 30.0 °F 16.6 °F 27.9 °F 92% 29.93 in 1.8 mi North 23.0 mph - N/A Snow Light Snow
1:35 AM 30.2 °F 20.8 °F 27.9 °F 91% 29.98 in 1.8 mi North 11.5 mph 23.0 mph N/A Snow Light Snow
1:55 AM 29.8 °F 17.0 °F 27.5 °F 91% 29.95 in 1.2 mi NNW 20.7 mph 33.4 mph N/A Snow Light Snow
2:15 AM 29.7 °F 17.4 °F 27.5 °F 92% 29.94 in 1.5 mi North 18.4 mph 28.8 mph 0.01 in Snow Light Snow
2:35 AM 29.3 °F 17.7 °F 27.1 °F 92% 29.92 in 1.0 mi North 16.1 mph 32.2 mph 0.01 in Snow Light Snow
2:55 AM 29.3 °F 17.7 °F 27.1 °F 92% 29.94 in 2.0 mi NNW 16.1 mph 27.6 mph 0.01 in Snow Light Snow
3:15 AM 29.3 °F 17.0 °F 27.1 °F 92% 29.92 in 2.0 mi NNW 18.4 mph 23.0 mph N/A Snow Light Snow
3:35 AM 28.9 °F 14.5 °F 26.6 °F 91% 29.93 in 2.0 mi NNW 25.3 mph 32.2 mph N/A Snow Light Snow
3:55 AM 29.1 °F 16.4 °F 27.0 °F 92% 29.92 in 2.0 mi NNW 19.6 mph 27.6 mph N/A Snow Light Snow
4:15 AM 28.8 °F 15.9 °F 26.1 °F 90% 29.90 in 2.5 mi NNW 19.6 mph 29.9 mph N/A Snow Light Snow
4:35 AM 28.4 °F 14.7 °F 25.7 °F 90% 29.92 in 2.5 mi NNW 21.9 mph 28.8 mph 0.01 in Snow Light Snow
4:55 AM 28.4 °F 14.4 °F 25.7 °F 90% 29.93 in 1.8 mi NNW 23.0 mph 29.9 mph 0.01 in Snow Light Snow
5:15 AM 28.2 °F 14.5 °F 25.7 °F 90% 29.92 in 1.0 mi NNW 21.9 mph 31.1 mph N/A Snow Snow
5:35 AM 28.2 °F 13.0 °F 25.7 °F 90% 29.92 in 1.0 mi NNW 27.6 mph 34.5 mph N/A Snow Light Snow
5:55 AM 28.0 °F 14.6 °F 25.7 °F 91% 29.92 in 1.2 mi NNW 20.7 mph 31.1 mph N/A Snow Light Snow
6:15 AM 28.2 °F 15.5 °F 25.7 °F 90% 29.92 in 2.0 mi NNW 18.4 mph - N/A Snow Light Snow
6:35 AM 28.4 °F 14.4 °F 25.9 °F 90% 29.92 in 2.5 mi NNW 23.0 mph 28.8 mph N/A Snow Light Snow
6:55 AM 28.0 °F 14.6 °F 25.5 °F 90% 29.92 in 3.0 mi NNW 20.7 mph 26.5 mph N/A Snow Light Snow
7:15 AM 28.0 °F 14.3 °F 25.3 °F 90% 29.92 in 1.5 mi NNW 21.9 mph 29.9 mph N/A Snow Light Snow
7:35 AM 28.0 °F 13.3 °F 25.2 °F 89% 29.93 in 1.5 mi NNW 25.3 mph 32.2 mph N/A Snow Light Snow
7:55 AM 28.0 °F 13.6 °F 25.2 °F 89% 29.93 in 1.0 mi NNW 24.2 mph 32.2 mph N/A Snow Light Snow
8:15 AM 28.0 °F 13.6 °F 25.0 °F 88% 29.94 in 1.5 mi NNW 24.2 mph 31.1 mph N/A Snow Light Snow
8:35 AM 28.4 °F 14.7 °F 25.2 °F 88% 29.93 in 1.2 mi NNW 21.9 mph 35.7 mph N/A Snow Light Snow
8:55 AM 28.8 °F 14.9 °F 25.0 °F 86% 29.94 in 2.5 mi NNW 23.0 mph 33.4 mph N/A   Overcast
9:15 AM 28.8 °F 16.2 °F 25.3 °F 87% 29.94 in 1.2 mi NNW 18.4 mph 29.9 mph N/A Snow Light Snow
9:35 AM 28.4 °F 14.7 °F 25.2 °F 88% 29.95 in 0.8 mi NNW 21.9 mph 32.2 mph N/A Snow Light Snow
9:55 AM 28.9 °F 15.1 °F 25.3 °F 86% 29.96 in 1.2 mi NNW 23.0 mph 29.9 mph N/A Snow Light Snow
10:15 AM 28.8 °F 14.3 °F 24.8 °F 85% 29.96 in 1.2 mi NNW 25.3 mph 32.2 mph N/A Snow Light Snow
10:35 AM 28.2 °F 14.5 °F 24.6 °F 86% 29.97 in 1.5 mi NNW 21.9 mph 28.8 mph N/A Snow Light Snow
10:55 AM 27.7 °F 12.6 °F 23.7 °F 85% 29.98 in 1.2 mi NNW 26.5 mph 34.5 mph N/A Snow Light Snow
11:15 AM 28.4 °F 14.7 °F 24.8 °F 86% 29.98 in 1.8 mi NNW 21.9 mph 29.9 mph N/A Snow Light Snow
11:35 AM 28.8 °F 15.5 °F 24.6 °F 84% 29.99 in 1.5 mi NNW 20.7 mph 31.1 mph N/A   Overcast
11:55 AM 28.8 °F 15.5 °F 24.8 °F 85% 29.99 in 1.2 mi NNW 20.7 mph 31.1 mph N/A Snow Light Snow
12:15 PM 28.8 °F 14.3 °F 24.6 °F 84% 29.98 in 1.0 mi NW 25.3 mph 35.7 mph N/A Snow Light Snow
12:35 PM 29.1 °F 14.8 °F 24.4 °F 83% 29.99 in 1.2 mi NNW 25.3 mph 34.5 mph N/A Snow Light Snow
12:55 PM 30.2 °F 16.8 °F 25.0 °F 81% 29.98 in 2.5 mi NNW 23.0 mph 28.8 mph N/A   Haze
1:15 PM 31.3 °F 18.2 °F 24.3 °F 75% 29.98 in 7.0 mi NNW 23.0 mph 34.5 mph N/A   Mostly Cloudy
1:35 PM 32.0 °F 18.9 °F 23.4 °F 70% 29.98 in 10.0 mi NNW 24.2 mph 29.9 mph N/A   Scattered Clouds
1:55 PM 33.1 °F 20.6 °F 21.9 °F 64% 29.98 in 10.0 mi NNW 23.0 mph 32.2 mph N/A   Mostly Cloudy
2:15 PM 33.4 °F 21.1 °F 22.5 °F 64% 29.97 in 10.0 mi NNW 23.0 mph 39.1 mph N/A   Overcast
2:35 PM 33.4 °F 20.3 °F 23.4 °F 67% 29.97 in 10.0 mi NW 26.5 mph 35.7 mph N/A   Overcast
2:55 PM 33.8 °F 21.0 °F 24.1 °F 68% 29.97 in 10.0 mi NW 25.3 mph 33.4 mph N/A   Overcast
3:35 PM 34.2 °F 21.5 °F 23.0 °F 64% 29.98 in 10.0 mi NW 25.3 mph 33.4 mph N/A   Overcast
3:55 PM 33.8 °F 20.8 °F 22.8 °F 64% 29.98 in 10.0 mi NW 26.5 mph 32.2 mph N/A   Overcast
4:15 PM 34.2 °F 22.3 °F 23.2 °F 64% 29.98 in 10.0 mi NW 21.9 mph 32.2 mph N/A   Overcast
4:35 PM 34.0 °F 21.8 °F 23.4 °F 65% 29.98 in 10.0 mi NW 23.0 mph 31.1 mph N/A   Mostly Cloudy
4:55 PM 34.9 °F 23.0 °F 23.2 °F 62% 29.98 in 10.0 mi NW 23.0 mph 32.2 mph N/A   Mostly Cloudy
5:15 PM 34.9 °F 23.0 °F 22.8 °F 61% 29.98 in 10.0 mi NNW 23.0 mph 31.1 mph N/A   Mostly Cloudy
5:35 PM 35.2 °F 23.5 °F 23.0 °F 61% 29.98 in 10.0 mi NW 23.0 mph 31.1 mph N/A   Overcast
5:55 PM 35.1 °F 24.5 °F 23.4 °F 62% 29.99 in 10.0 mi NW 18.4 mph 28.8 mph N/A   Scattered Clouds
6:15 PM 34.2 °F 23.0 °F 24.3 °F 67% 30.00 in 10.0 mi NNW 19.6 mph 29.9 mph N/A   Scattered Clouds
6:35 PM 34.7 °F 23.1 °F 23.7 °F 64% 30.00 in 10.0 mi NNW 21.9 mph 31.1 mph N/A   Mostly Cloudy
6:55 PM 34.0 °F 22.7 °F 24.3 °F 68% 30.00 in 10.0 mi NNW 19.6 mph 34.5 mph N/A   Mostly Cloudy
7:15 PM 34.0 °F 22.4 °F 23.9 °F 67% 30.01 in 10.0 mi NW 20.7 mph 26.5 mph N/A   Scattered Clouds
7:35 PM 33.3 °F 22.5 °F 23.9 °F 69% 30.01 in 10.0 mi NNW 17.3 mph 24.2 mph N/A   Clear
7:55 PM 33.1 °F 23.0 °F 23.4 °F 67% 30.01 in 10.0 mi NW 15.0 mph 26.5 mph N/A   Scattered Clouds
8:15 PM 32.4 °F 21.7 °F 23.0 °F 68% 30.02 in 10.0 mi NNW 16.1 mph 23.0 mph N/A   Clear
8:35 PM 32.0 °F 21.2 °F 23.7 °F 71% 30.02 in 10.0 mi NW 16.1 mph 21.9 mph N/A   Clear
9:55 PM 32.0 °F 22.5 °F 25.2 °F 76% 30.04 in 10.0 mi NW 12.7 mph - N/A   Scattered Clouds
10:35 PM 31.5 °F 21.4 °F 24.8 °F 76% 30.04 in 10.0 mi NW 13.8 mph - N/A   Scattered Clouds
10:55 PM 31.5 °F 20.9 °F 24.6 °F 76% 30.03 in 10.0 mi WNW 15.0 mph - N/A   Scattered Clouds
11:15 PM 32.0 °F 21.6 °F 25.3 °F 76% 30.02 in 10.0 mi WNW 15.0 mph 21.9 mph N/A   Mostly Cloudy
11:35 PM 31.8 °F 21.4 °F 24.6 °F 75% 30.02 in 10.0 mi WNW 15.0 mph - N/A   Mostly Cloudy
11:55 PM 30.9 °F 20.7 °F 24.3 °F 76% 30.01 in 10.0 mi WNW 13.8 mph 18.4 mph N/A   Scattered Clouds